Simultaneous Nadir Overpasses (SNOs) Predictions

Prediction of SNOs between METOP-B and NOAA-19 Satellite Orbit:

Table of predicted SNOs for the next 14.0 days since TLE Epoch: 5/23/2014
Index Date (METOP-B) Time (METOP-B) Lat,Lon (METOP-B) SZA (METOP-B ) Date (NOAA-19) Time (NOAA-19) Lat,Lon (NOAA-19) SZA (NOAA-19 ) Distance(km) Time Diff (sec)
1 05/24/2014 08:32:11 -74.25,-132.51 126.58 05/24/2014 08:30:59 -74.27,-133.91 126.52 42.31 72
2 05/24/2014 09:22:57 73.97, 34.11 53.15 05/24/2014 09:22:01 73.98, 34.06 53.17 2.38 56
3 05/24/2014 10:13:39 -73.94,-158.63 126.89 05/24/2014 10:12:56 -73.95,-158.60 126.87 1.66 43
4 05/24/2014 11:04:19 73.95, 8.72 53.12 05/24/2014 11:04:04 73.95, 8.62 53.12 3.14 15
5 05/24/2014 11:55:00 -73.92, 175.98 126.92 05/24/2014 11:54:58 -73.92, 175.97 126.92 0.47 2
6 05/24/2014 12:45:41 73.88, -16.78 53.04 05/24/2014 12:46:05 73.87, -16.69 53.03 3.02 24
7 05/24/2014 13:36:22 -73.90, 150.60 126.95 05/24/2014 13:37:01 -73.89, 150.53 126.97 2.35 39
8 05/24/2014 14:27:03 73.86, -42.17 53.01 05/24/2014 14:28:08 73.84, -42.13 52.98 2.67 65
9 05/24/2014 15:17:48 -73.68, 124.74 127.17 05/24/2014 15:19:01 -73.71, 125.46 127.17 22.63 73
10 06/03/2014 14:19:58 74.26, -39.46 51.87 06/03/2014 14:18:46 74.26, -40.73 51.92 38.42 72
11 06/03/2014 15:10:45 -73.98, 127.18 128.40 06/03/2014 15:09:36 -74.00, 127.24 128.38 2.35 69
12 06/03/2014 16:01:25 73.99, -65.46 51.61 06/03/2014 16:00:44 73.99, -65.54 51.62 2.43 41
13 06/03/2014 16:52:07 -73.96, 101.79 128.43 06/03/2014 16:51:39 -73.96, 101.80 128.42 0.51 28
14 06/03/2014 17:42:48 73.92, -90.97 51.54 06/03/2014 17:42:46 73.91, -90.86 51.53 3.67 2
15 06/03/2014 18:33:29 -73.94, 76.40 128.45 06/03/2014 18:33:42 -73.93, 76.36 128.46 1.46 13
16 06/03/2014 19:24:10 73.90,-116.36 51.51 06/03/2014 19:24:49 73.88,-116.29 51.49 2.91 39
17 06/03/2014 20:14:51 -73.92, 51.01 128.48 06/03/2014 20:15:45 -73.90, 50.92 128.50 3.36 54
18 06/03/2014 21:05:37 73.63,-142.34 51.25 06/03/2014 21:06:48 73.66,-141.25 51.24 34.03 71




NCC Satellite Simultaneous Nadir Overpasses (SNOs) Prediction Service
